Location: Anzano del Parco
(45.7667°N, 9.2000°E)
Time: 12:50:58
(UTC+00:00)

Daily predictions for brighter satellites

Satellite Brightness Start Highest point End
(mag) Time Altitude Azimuth Time Altitude Azimuth Time Altitude Azimuth
BREEZE-M DEB (TANK) 4.2 15:58:13 10° W 16:02:01 71° N 16:15:01 10° ENE
Cosmos 44 3.5 16:02:28 10° NNW 16:07:47 76° NE 16:13:13 10° SE
PSLV R/B 3.9 16:04:45 10° SSE 16:08:49 71° ENE 16:12:53 10° N
CZ-4B R/B 3.5 16:04:19 10° SE 16:09:18 43° ENE 16:14:17 10° N
CZ-4B R/B 4.2 16:05:53 10° S 16:09:59 49° W 16:14:17 10° NNW
H-2A R/B 2.5 16:07:57 10° SSE 16:12:05 58° ENE 16:16:06 10° N
MOS 1-B 4.4 16:08:45 10° SSE 16:14:32 75° ENE 16:20:21 10° NNW
Cosmos 2369 Rocket 2.9 16:10:14 10° N 16:15:16 31° NE 16:20:13 10° ESE
Cosmos 1943 Rocket 2.4 16:11:41 10° NNW 16:17:02 46° ENE 16:22:24 10° SE
ADEOS Rocket 3.7 16:09:57 10° NNE 16:17:47 86° ESE 16:25:28 10° SSW
NOAA 12 4.3 16:13:48 10° SE 16:18:54 49° ENE 16:24:01 10° N
Cosmos 2221 4.5 16:15:09 10° SW 16:18:57 30° WNW 16:22:46 10° NNW
H-2A R/B 2.3 16:17:52 10° NNE 16:21:59 51° E 16:26:11 10° S
NOAA 6 4.1 16:20:27 10° SSE 16:25:36 89° ENE 16:30:47 10° NNW
Okean O Rocket 1.8 16:21:31 10° SE 16:25:42 46° ENE 16:29:55 10° N
Cosmos 1782 3.9 16:23:13 10° SE 16:26:29 25° E 16:29:45 10° NE
Okean-O 4.4 16:25:47 10° E 16:27:42 13° ENE 16:29:37 10° NNE
CRYOSAT 2 4.3 16:24:34 10° N 16:29:29 72° E 16:34:22 10° S
H-2A R/B 3.6 16:26:26 10° S 16:30:12 54° W 16:34:03 10° NNW
ISS -2.5 16:27:23 10° WNW 16:30:22 29° N 16:32:58 12° ENE
Cosmos 1633 Rocket 3.1 16:26:30 10° N 16:30:49 58° ENE 16:35:05 10° SSE
Cosmos 1933 3.4 16:28:03 10° S 16:32:02 62° E 16:36:04 10° NNE
Cosmos 2218 Rocket 4.0 16:31:13 10° N 16:37:17 59° ENE 16:43:21 10° SSE
Cosmos 2366 rocket 4.0 16:32:10 10° N 16:38:15 57° ENE 16:44:17 10° SSE
Cosmos 1867 4.2 16:33:30 10° SW 16:38:48 53° NW 16:44:10 10° NNE
ERS-2 3.3 16:36:10 11° NE 16:39:00 23° E 16:41:58 10° SSE
Meteor 1-25 Rocket 4.2 16:33:27 10° N 16:39:07 72° ENE 16:44:48 10° SSE
Envisat 3.5 16:36:51 10° S 16:41:53 65° WSW 16:46:58 10° NNW
Lacrosse 5 rocket 1.8 16:43:56 10° WSW 16:47:26 43° NNW 16:50:15 14° NE
Cosmos 773 Rocket 4.0 16:43:05 10° SSW 16:48:21 79° ESE 16:53:40 10° NNE
SL-23 DEB 4.2 16:45:20 10° SW 16:48:46 58° SE 16:52:39 17° ENE
NOSS 3-2 (A) 4.4 16:46:25 10° SSE 16:50:53 25° ESE 16:54:01 17° ENE
YAOGAN 6 3.5 16:47:28 10° S 16:51:01 52° W 16:54:33 10° NNW
Cosmos 1606 4.2 16:50:10 10° SSW 16:53:50 39° WNW 16:57:30 10° N
Cosmos 2297 4.4 16:49:14 10° NNW 16:54:49 58° WSW 17:00:24 10° S
FengYun 1-2 T 4.1 16:50:35 10° SSE 16:56:05 72° ENE 17:01:35 10° N
AQUARIUS 4.2 16:51:37 10° SSE 16:56:06 87° WSW 17:00:38 10° NNW
Feng Yun 1-1 Rocket 4.4 16:50:45 10° SE 16:56:15 51° ENE 17:01:38 10° N
OE (NEXTSAT) 4.2 16:52:56 10° W 16:56:25 86° N 16:58:30 22° E
SL-16 R/B 2.6 16:52:53 10° SW 16:58:30 63° WNW 17:04:07 10° NNE
CZ-4B R/B 1.5 16:56:26 17° NNE 16:58:34 44° E 17:01:37 10° S
BREEZE-M DEB (TANK) 1.4 17:00:29 10° WSW 17:02:54 79° NNW 17:03:26 42° ENE
USA 215 4.0 16:59:20 18° ENE 17:03:30 34° SE 17:09:19 10° SSW
SMAP 3.6 17:00:32 10° S 17:05:09 63° W 17:09:47 10° NNW
Cosmos 1500 3.8 17:02:51 10° N 17:06:22 34° ENE 17:09:52 10° SE
YAOGAN 1 3.6 17:09:19 24° ENE 17:09:19 24° ENE 17:12:28 10° NNE
USA 238 DEB 4.3 17:04:10 10° S 17:09:55 33° ESE 17:13:06 22° ENE
USA 238 4.3 17:04:17 10° S 17:10:00 33° ESE 17:13:10 22° ENE
Cosmos 1656 Rocket 4.0 17:05:34 10° NNW 17:10:58 44° ENE 17:16:15 10° SE
Cosmos 1151 Rocket 3.5 17:07:58 10° SSW 17:12:12 61° WNW 17:16:26 10° N
SL-24 DEB 4.5 17:07:44 10° NNE 17:12:19 47° E 17:16:50 10° SSE
Cosmos 1470 Rocket 3.5 17:09:00 10° N 17:13:21 88° WSW 17:17:39 10° S
MOS 1 Rocket 4.4 17:13:25 22° NE 17:15:34 29° E 17:20:12 10° SSE
Cosmos 158 Rocket 4.4 17:15:01 10° SSE 17:19:32 36° ESE 17:20:55 30° ENE
Cosmos 2263 4.1 17:14:18 10° NNW 17:19:53 64° ENE 17:25:26 10° SE
Cosmos 1515 Rocket 3.4 17:15:47 10° S 17:20:09 82° E 17:24:36 10° N
CZ-2C R/B 3.2 17:16:18 10° SE 17:20:55 40° ENE 17:25:24 10° N
SWAS 4.4 17:18:06 10° SSW 17:22:19 63° ESE 17:24:10 32° NE
Cosmos 923 Rocket 4.4 17:18:02 10° S 17:22:52 41° ESE 17:24:50 29° ENE
Cosmos 1238 Rocket 3.4 17:21:39 10° N 17:25:29 40° E 17:30:03 10° SSE
COSMO-SKYMED 1 2.5 17:23:06 18° NNE 17:26:15 63° E 17:30:32 10° S
Cosmos 1689 Rocket 4.1 17:29:01 18° SSE 17:29:01 18° SSE 17:29:57 10° S
USA 281 3.4 17:21:35 10° SE 17:27:50 49° NE 17:34:05 10° NNW
YAOGAN 3 4.5 17:24:42 10° SSE 17:29:04 88° E 17:33:28 10° NNW
X-37B 0.6 17:26:02 10° WSW 17:29:11 67° S 17:29:28 62° SE
Nadezhda 3 Rocket 4.1 17:23:19 10° SSE 17:29:31 57° E 17:35:43 10° NNE
SAR-Lupe-4 3.5 17:29:14 50° ENE 17:29:49 58° ESE 17:33:21 10° S
Helios 1A Rocket 3.6 17:33:25 36° NNE 17:33:25 36° NNE 17:36:14 10° N
Meteor 2-6 Rocket 4.1 17:27:05 10° S 17:32:34 61° E 17:37:14 14° NNE
Cosmos 2228 Rocket 3.2 17:28:20 10° S 17:32:45 54° E 17:34:29 33° NE
Meteor 1-4 Rocket 3.7 17:30:47 10° SSW 17:34:12 43° WNW 17:37:26 11° N
H-2A R/B 2.4 17:35:17 37° E 17:35:46 38° ENE 17:40:29 10° N
Cosmos 1812 2.7 17:32:49 10° S 17:36:35 57° E 17:36:35 57° E
USA 267 3.6 17:34:11 31° ENE 17:36:58 47° NNE 17:43:10 10° NW
Cosmos 1821 Rocket 3.9 17:31:56 10° N 17:38:12 71° E 17:44:30 10° SSE
Cosmos 1939 Rocket 3.0 17:34:30 10° S 17:38:21 72° WSW 17:42:19 10° NNW
CZ-4 R/B 4.3 17:36:01 10° SSE 17:40:08 81° ENE 17:44:18 10° N
CZ-4 R/B 1.7 17:41:27 45° NNE 17:41:27 45° NNE 17:44:35 10° N
Meteor 1-11 Rocket 3.9 17:35:39 10° N 17:41:15 48° ENE 17:46:57 10° SSE
NOSS 3-3 (A) 4.5 17:34:38 10° NW 17:42:02 65° NE 17:47:58 21° SE
NOSS 3-3 (C) 4.5 17:34:42 10° NW 17:42:08 65° NE 17:47:58 21° SE
PSLV R/B 3.8 17:42:20 60° ENE 17:42:37 62° ESE 17:46:37 10° S
BREEZE-M DEB (TANK) 3.4 17:40:10 10° SW 17:42:53 26° SSE 17:42:53 26° SSE
CSL-04 Rocket 4.2 17:44:05 37° NE 17:44:05 37° NE 17:48:10 10° N
Cosmos 1933 Rocket 4.0 17:38:58 10° NNW 17:43:23 63° W 17:47:47 10° S
Cosmos 44 Rocket 3.4 17:38:21 10° NNW 17:43:31 63° NE 17:45:09 41° ESE
IRS-1C Rocket 4.1 17:39:22 10° SSE 17:44:39 85° WSW 17:49:58 10° NNW
Cosmos 546 4.4 17:42:17 10° WSW 17:46:06 87° SSE 17:46:15 83° E
SAR-Lupe-1 3.9 17:46:35 79° NNE 17:46:47 90° WNW 17:50:22 10° SSW
Lacrosse 4 Rocket 3.3 17:45:45 10° S 17:46:59 17° SSE 17:46:59 17° SSE
Cosmos 1680 Rocket 3.6 17:44:34 10° S 17:49:42 54° ESE 17:50:18 51° E
SL-24 R/B 3.7 17:49:33 53° N 17:50:22 79° WNW 17:53:59 10° SSW
Cosmos 1603 3.7 17:48:23 10° SSW 17:54:00 81° WNW 17:56:56 30° NNE
CZ-2D R/B 3.6 17:51:26 10° S 17:55:13 65° WSW 17:59:04 10° NNW
Cosmos 1943 3.2 17:51:42 10° SSW 17:57:22 85° WNW 17:59:58 34° NNE
Cosmos 2369 Rocket 3.1 17:54:03 10° NW 17:59:31 48° WSW 18:04:53 10° S
Cosmos 1943 Rocket 4.1 17:55:50 10° NW 18:00:33 29° WSW 18:05:17 10° SSW
Meteor 1-5 Rocket 4.4 17:55:46 10° NNW 18:01:41 76° W 18:07:23 10° S
Okean O Rocket 4.4 17:59:13 10° SW 18:02:17 19° W 18:05:24 10° NW
Okean-O 2.6 17:59:06 10° SSE 18:03:32 82° WSW 18:08:00 10° NNW
Cosmos 1461 4.1 17:59:47 10° SSW 18:02:44 35° SSE 18:02:44 35° SSE
Cosmos 1371 Rocket 4.4 17:59:40 10° NNW 18:03:40 47° NNE 18:03:40 47° NNE
ARGOS 4.2 18:08:32 31° N 18:08:32 31° N 18:11:27 10° N
CENTAUR R/B 2.5 18:01:52 10° SSW 18:07:31 54° ESE 18:07:45 54° ESE
ISS -1.6 18:04:26 10° NW 18:05:55 22° NW 18:05:55 22° NW
Cosmos 2112 Rocket 4.0 18:05:01 10° S 18:09:53 67° SE 18:09:53 67° SE
Cosmos 2056 Rocket 4.2 18:05:52 10° NNW 18:09:29 41° N 18:09:29 41° N
ERS-2 4.2 18:10:45 18° NNW 18:12:30 26° WNW 18:15:36 10° SW
NOSS 3-2 (C) 3.4 18:10:09 10° SSW 18:15:10 57° SE 18:15:10 57° SE
Cosmos 1869 Rocket 3.9 18:13:41 10° NNW 18:22:43 - S 18:17:49 63° WNW
BREEZE-M DEB (TANK) 3.5 18:13:31 10° WSW 18:19:59 61° SW 18:19:59 61° SW
Meteor 1-27 Rocket 3.8 18:15:45 10° S 18:20:11 58° SSE 18:20:11 58° SSE
Lacrosse 5 rocket 3.8 18:25:02 10° NW 18:25:53 13° NW 18:25:53 13° NW
Cosmos 371 Rocket 4.5 18:25:12 10° NNW 18:28:01 35° NNW 18:28:01 35° NNW
NOSS 3-2 (A) 3.6 18:35:24 10° SW 18:41:03 64° NW 18:41:27 62° NNW
YAOGAN 1 4.5 18:46:28 26° NW 18:46:28 26° NW 18:48:52 10° NNW
USA 215 3.2 18:46:42 79° N 18:46:54 80° NW 18:53:27 10° WSW
USA 238 DEB 4.0 18:53:59 10° SW 19:00:29 59° NW 19:00:35 59° NW
USA 238 4.0 18:54:04 10° SW 19:00:35 59° NW 19:00:39 59° NW
USA 281 4.4 19:06:26 10° S 19:12:25 37° WSW 19:18:29 10° NW
H-2A R/B 3.8 19:15:55 29° W 19:15:55 29° W 19:19:46 10° NNW
USA 267 3.9 19:21:32 51° WNW 19:21:32 51° WNW 19:26:20 10° NW
CENTAUR R/B 4.5 19:52:40 10° WSW 19:54:58 23° W 19:54:58 23° W
